Find Starlink 1456

NORAD ID: 45673 Int'l Des: 2020-035 Owner: SPXS Country: US Constellation: starlink operational
LEOCIRCULAR

实时位置

正在加载3D地球...

关于 Starlink 1456

正在加载描述...

即将过境

Passes for default location (London). Set your location on the main map for personalized predictions.

高度历史

Loading altitude history...

两行轨道根数

1 45673U 20035S 26127.16509669 .00087266 00000-0 10340-2 0 9994
2 45673 53.0441 123.5441 0007183 37.3124 322.8386 15.60497147328125
Epoch: May 7, 2026 • Age: 4 hours

当前状态

高度 390.1 km
速度 7.68 km/s
星下点 -21.53°S, 113.4°E
发射日期 Jun 4, 2020
运行时间 5.9 years
类型 internet

技术详情

分类 Payload
质量 260.00 kg
干质量 248.00 kg
总质量 260.00 kg
长度 0.20 m
直径 2.80 m
跨度 9.00 m
形状 Box + pan
制造商 SPXS
平台类型 Starlink
阶段状态 In Orbit
所有者/国家 SPXS/US

Most Searched